EW6013 Weather Reports


Display with metric or nautical units.
time (UTC)temp
F
wind
direction
speed
MPH
gust
MPH
rain 1hr
in
rain 24hr
in
rain mn
in
humidity
%
barometer
mb
20260505125015 61 0.0 1.0 0.00 0.00 0.00 69 1006.6
20260505124515 61 194 0.0 1.0 0.00 0.00 0.00 68 1006.7
20260505124015 61 0.0 1.0 0.00 0.00 0.00 68 1006.6
20260505123535 61 125 0.0 1.0 0.00 0.00 0.00 69 1006.6
20260505123015 60 0.0 0.0 0.00 0.00 0.00 70 1006.6
20260505122515 60 0.0 0.0 0.00 0.00 0.00 70 1006.5
20260505122035 59 0.0 0.0 0.00 0.00 0.00 70 1006.5
20260505121515 59 0.0 7.0 0.00 0.00 0.00 71 1006.7
20260505121015 59 228 0.0 7.0 0.00 0.00 0.00 71 1006.7
20260505120516 58 209 0.0 6.0 0.00 0.00 0.00 73 1006.7
20260505120055 58 230 0.0 8.0 0.00 0.00 0.00 73 1006.6
20260505115535 57 216 0.0 8.0 0.00 0.00 0.00 74 1006.7
20260505115015 57 205 0.0 9.0 0.00 0.00 0.00 74 1006.8
20260505114515 56 258 0.0 9.0 0.00 0.00 0.00 75 1006.7
20260505114015 56 235 0.0 6.0 0.00 0.00 0.00 75 1006.5
20260505113515 56 193 0.0 2.0 0.00 0.00 0.00 75 1006.6
20260505113015 56 0.0 0.0 0.00 0.00 0.00 76 1006.6
20260505112535 55 0.0 0.0 0.00 0.00 0.00 76 1006.5
20260505112015 55 0.0 0.0 0.00 0.00 0.00 77 1006.4
20260505111535 55 0.0 1.0 0.00 0.00 0.00 77 1006.5
20260505111015 54 213 0.0 1.0 0.00 0.00 0.00 78 1006.4
20260505110515 54 0.0 0.0 0.00 0.00 0.00 78 1006.3
20260505102015 51 0.0 0.0 0.00 0.00 0.00 81 1006.3
20260505101515 51 0.0 0.0 0.00 0.00 0.00 81 1006.3
20260505101015 51 0.0 0.0 0.00 0.00 0.00 81 1006.4
20260505100515 51 0.0 0.0 0.00 0.00 0.00 81 1006.3
20260505100015 50 0.0 0.0 0.00 0.00 0.00 81 1006.3
20260505095515 50 0.0 0.0 0.00 0.00 0.00 82 1006.3
20260505095015 50 0.0 0.0 0.00 0.00 0.00 82 1006.4
20260505094535 50 0.0 0.0 0.00 0.00 0.00 82 1006.5
20260505094015 50 0.0 0.0 0.00 0.00 0.00 82 1006.5
20260505093515 49 0.0 0.0 0.00 0.00 0.00 82 1006.5
20260505093015 49 0.0 0.0 0.00 0.00 0.00 82 1006.5
20260505092515 49 0.0 0.0 0.00 0.00 0.00 82 1006.4
20260505092015 49 0.0 0.0 0.00 0.00 0.00 83 1006.4
20260505091515 49 0.0 0.0 0.00 0.00 0.00 82 1006.5
20260505091015 49 0.0 0.0 0.00 0.00 0.00 82 1006.5
20260505090515 49 0.0 0.0 0.00 0.00 0.00 82 1006.4
20260505090015 49 0.0 0.0 0.00 0.00 0.00 82 1006.4
20260505085515 49 0.0 0.0 0.00 0.00 0.00 82 1006.4
20260505085015 49 0.0 0.0 0.00 0.00 0.00 81 1006.4
20260505084515 49 0.0 0.0 0.00 0.00 0.00 81 1006.5
20260505084015 49 0.0 0.0 0.00 0.00 0.00 81 1006.5
20260505083515 49 0.0 0.0 0.00 0.00 0.00 81 1006.5
20260505083015 49 0.0 0.0 0.00 0.00 0.00 81 1006.5
20260505082515 49 0.0 0.0 0.00 0.00 0.00 81 1006.6
20260505082015 49 0.0 0.0 0.00 0.00 0.00 81 1006.7
20260505081515 49 0.0 0.0 0.00 0.00 0.00 81 1006.7
20260505081015 49 0.0 0.0 0.00 0.00 0.00 80 1006.7
20260505080514 49 0.0 0.0 0.00 0.00 0.00 80 1006.7
20260505080035 49 0.0 0.0 0.00 0.00 0.00 80 1006.7
20260505075517 49 0.0 0.0 0.00 0.00 0.00 80 1006.6
20260505075017 49 0.0 0.0 0.00 0.00 0.00 80 1006.7
20260505074517 49 0.0 0.0 0.00 0.00 0.00 80 1006.8
20260505074017 49 0.0 0.0 0.00 0.00 0.00 80 1006.9
20260505073516 49 0.0 0.0 0.00 0.00 0.00 79 1006.8
20260505073037 49 0.0 0.0 0.00 0.00 0.00 79 1006.8
20260505072516 49 0.0 0.0 0.00 0.00 0.00 79 1006.8
20260505072016 49 0.0 0.0 0.00 0.00 0.00 79 1006.8
20260505071516 49 0.0 0.0 0.00 0.00 0.00 78 1006.8
20260505071056 49 0.0 0.0 0.00 0.00 0.00 78 1006.8
20260505070536 50 0.0 0.0 0.00 0.00 0.00 78 1006.9
20260505070016 50 0.0 0.0 0.00 0.00 0.00 77 1006.9
20260505065536 50 0.0 0.0 0.00 0.00 0.00 77 1007.0
20260505065016 50 0.0 0.0 0.00 0.00 0.00 77 1006.9
20260505064516 50 0.0 0.0 0.00 0.00 0.00 76 1006.9
20260505064016 50 0.0 0.0 0.00 0.00 0.00 76 1006.9
20260505063516 50 0.0 0.0 0.00 0.00 0.00 76 1006.9
20260505063016 51 0.0 0.0 0.00 0.00 0.00 76 1007.0
20260505062556 51 0.0 0.0 0.00 0.00 0.00 75 1007.1
20260505062036 51 0.0 0.0 0.00 0.00 0.00 75 1007.1
20260505061536 51 0.0 0.0 0.00 0.00 0.00 75 1007.1
20260505061016 51 0.0 0.0 0.00 0.00 0.00 74 1007.1
20260505060516 51 0.0 0.0 0.00 0.00 0.00 74 1007.1
20260505060016 51 0.0 0.0 0.00 0.00 0.00 74 1007.1
20260505055516 51 0.0 0.0 0.00 0.00 0.00 74 1007.1
20260505055036 51 0.0 0.0 0.00 0.00 0.00 74 1007.1
20260505054516 51 0.0 0.0 0.00 0.00 0.00 73 1007.2
20260505054016 51 0.0 0.0 0.00 0.00 0.00 73 1007.2
20260505053516 52 0.0 0.0 0.00 0.00 0.00 72 1007.2
20260505053016 52 0.0 0.0 0.00 0.00 0.00 71 1007.2
20260505052556 52 0.0 0.0 0.00 0.00 0.00 70 1007.2
20260505052016 52 0.0 0.0 0.00 0.00 0.00 70 1007.2
20260505051516 53 0.0 0.0 0.00 0.00 0.00 69 1007.2
20260505051116 53 0.0 0.0 0.00 0.00 0.00 68 1007.2
20260505050516 53 0.0 0.0 0.00 0.00 0.00 67 1007.3
20260505041516 56 0.0 0.0 0.00 0.00 0.00 62 1007.2
20260505041016 56 0.0 0.0 0.00 0.00 0.00 62 1007.1
20260505040516 56 0.0 0.0 0.00 0.00 0.00 61 1007.1
20260505040036 57 0.0 0.0 0.00 0.00 0.00 61 1007.0
20260505035516 57 0.0 0.0 0.00 0.00 0.00 60 1007.0
20260505035016 57 0.0 0.0 0.00 0.00 0.00 60 1006.9
20260505034516 57 0.0 0.0 0.00 0.00 0.00 59 1006.9
20260505034016 58 0.0 0.0 0.00 0.00 0.00 59 1006.9
20260505033516 58 0.0 0.0 0.00 0.00 0.00 59 1006.9
20260505033016 58 0.0 0.0 0.00 0.00 0.00 58 1006.9
20260505032516 58 0.0 0.0 0.00 0.00 0.00 58 1006.8
20260505032036 59 0.0 0.0 0.00 0.00 0.00 57 1006.8
20260505031516 59 0.0 0.0 0.00 0.00 0.00 57 1006.9
20260505031036 59 0.0 0.0 0.00 0.00 0.00 56 1006.9
20260505030516 59 0.0 0.0 0.00 0.00 0.00 57 1006.8
20260505030035 59 0.0 0.0 0.00 0.00 0.00 57 1006.8
20260505025516 59 0.0 0.0 0.00 0.00 0.00 56 1006.8
20260505025016 59 0.0 0.0 0.00 0.00 0.00 55 1006.8
20260505024515 59 0.0 0.0 0.00 0.00 0.00 56 1006.7
20260505024016 60 0.0 0.0 0.00 0.00 0.00 55 1006.7
20260505023516 60 0.0 0.0 0.00 0.00 0.00 55 1006.8
20260505023016 60 0.0 0.0 0.00 0.00 0.00 55 1006.8
20260505022536 60 0.0 0.0 0.00 0.00 0.00 54 1006.9
20260505022016 60 0.0 0.0 0.00 0.00 0.00 54 1006.9
20260505021516 60 0.0 0.0 0.00 0.00 0.00 54 1006.9
20260505021015 60 0.0 0.0 0.00 0.00 0.00 54 1006.9
20260505020515 60 0.0 0.0 0.00 0.00 0.00 54 1006.9
20260505020016 60 0.0 0.0 0.00 0.00 0.00 54 1006.9
20260505015536 61 0.0 0.0 0.00 0.00 0.00 53 1006.9
20260505015015 61 0.0 0.0 0.00 0.00 0.00 53 1006.9
20260505014516 61 0.0 0.0 0.00 0.00 0.00 52 1006.8
20260505014015 62 0.0 0.0 0.00 0.00 0.00 51 1006.7
20260505013515 62 0.0 0.0 0.00 0.00 0.00 51 1006.6
20260505013015 62 0.0 0.0 0.00 0.00 0.00 51 1006.6
20260505012516 62 0.0 0.0 0.00 0.00 0.00 50 1006.5
20260505012015 62 0.0 0.0 0.00 0.00 0.00 50 1006.4
20260505011515 63 0.0 0.0 0.00 0.00 0.00 49 1006.3
20260505011015 63 0.0 0.0 0.00 0.00 0.00 49 1006.2
20260505010515 63 0.0 0.0 0.00 0.00 0.00 48 1006.1
20260505010015 63 0.0 0.0 0.00 0.00 0.00 48 1006.1
20260505005515 63 0.0 0.0 0.00 0.00 0.00 48 1006.0
20260505005015 64 0.0 0.0 0.00 0.00 0.00 48 1005.9
20260505004515 64 0.0 0.0 0.00 0.00 0.00 47 1005.7
20260505004015 64 0.0 0.0 0.00 0.00 0.00 47 1005.5
20260505003515 64 0.0 0.0 0.00 0.00 0.00 47 1005.4
20260505003015 64 0.0 0.0 0.00 0.00 0.00 46 1005.3
20260505002555 65 0.0 2.0 0.00 0.00 0.00 45 1005.1
20260505002015 65 177 0.0 3.0 0.00 0.00 0.00 45 1004.9
20260505001515 65 181 0.0 8.0 0.00 0.00 0.00 43 1004.8
20260505001035 66 211 1.0 8.0 0.00 0.00 0.00 42 1004.7
20260505000515 66 0.0 2.0 0.00 0.00 0.00 43 1004.6
20260505000015 67 272 0.0 2.0 0.00 0.00 0.00 41 1004.5
20260504235515 67 0.0 0.0 0.00 0.00 0.00 39 1004.4
20260504235015 67 0.0 0.0 0.00 0.00 0.00 38 1004.3
20260504234535 68 0.0 0.0 0.00 0.00 0.00 37 1004.3
20260504234015 68 0.0 0.0 0.00 0.00 0.00 37 1004.2
20260504233515 68 0.0 0.0 0.00 0.00 0.00 37 1004.1
20260504233015 69 0.0 1.0 0.00 0.00 0.00 36 1004.0
20260504232535 69 188 0.0 1.0 0.00 0.00 0.00 36 1004.0
20260504232015 69 0.0 9.0 0.00 0.00 0.00 36 1003.9
20260504231536 69 201 1.0 9.0 0.00 0.00 0.00 36 1003.8
20260504231015 69 241 0.0 7.0 0.00 0.00 0.00 35 1003.8
20260504230535 69 214 0.0 4.0 0.00 0.00 0.00 35 1003.7
20260504230015 69 0.0 0.0 0.00 0.00 0.00 35 1003.7
20260504225515 69 0.0 0.0 0.00 0.00 0.00 35 1003.7
20260504225015 69 0.0 8.0 0.00 0.00 0.00 35 1003.6
20260504224555 70 203 0.0 11.0 0.00 0.00 0.00 35 1003.5
20260504224015 70 202 1.0 11.0 0.00 0.00 0.00 35 1003.5
20260504223515 70 0.0 0.0 0.00 0.00 0.00 35 1003.5
20260504223015 70 0.0 1.0 0.00 0.00 0.00 35 1003.4
20260504222515 70 233 0.0 12.0 0.00 0.00 0.00 35 1003.4
20260504222015 70 216 3.0 12.0 0.00 0.00 0.00 34 1003.4
20260504221515 70 197 0.0 7.0 0.00 0.00 0.00 35 1003.4
20260504221035 70 0.0 1.0 0.00 0.00 0.00 34 1003.5
20260504220515 70 266 0.0 10.0 0.00 0.00 0.00 34 1003.5
20260504220035 71 198 1.0 10.0 0.00 0.00 0.00 34 1003.6
20260504215515 70 0.0 3.0 0.00 0.00 0.00 34 1003.5
20260504215015 70 235 0.0 3.0 0.00 0.00 0.00 35 1003.5
20260504214515 71 0.0 9.0 0.00 0.00 0.00 34 1003.5
20260504214015 71 235 1.0 9.0 0.00 0.00 0.00 33 1003.5
20260504213515 71 0.0 0.0 0.00 0.00 0.00 33 1003.5
20260504213015 71 0.0 1.0 0.00 0.00 0.00 33 1003.5
20260504212515 71 226 0.0 1.0 0.00 0.00 0.00 34 1003.5
20260504212015 71 0.0 1.0 0.00 0.00 0.00 34 1003.5
20260504211515 71 238 0.0 1.0 0.00 0.00 0.00 34 1003.5
20260504211015 71 0.0 1.0 0.00 0.00 0.00 34 1003.5
20260504210515 71 248 0.0 1.0 0.00 0.00 0.00 34 1003.6
20260504210015 71 277 0.0 11.0 0.00 0.00 0.00 34 1003.5
20260504205515 71 199 2.0 11.0 0.00 0.00 0.00 32 1003.5
20260504205015 71 222 0.0 10.0 0.00 0.00 0.00 33 1003.5
20260504204515 71 286 0.0 13.0 0.00 0.00 0.00 33 1003.5
20260504204015 71 286 2.0 17.0 0.00 0.00 0.00 33 1003.5
20260504203515 71 286 3.0 17.0 0.00 0.00 0.00 34 1003.5
20260504203015 71 247 3.0 17.0 0.00 0.00 0.00 33 1003.4
20260504202515 71 231 0.0 10.0 0.00 0.00 0.00 33 1003.5
20260504202015 71 0.0 0.0 0.00 0.00 0.00 33 1003.5
20260504201535 71 0.0 0.0 0.00 0.00 0.00 33 1003.5
20260504201015 72 0.0 0.0 0.00 0.00 0.00 32 1003.6
20260504200515 71 0.0 0.0 0.00 0.00 0.00 34 1003.5
20260504200015 71 0.0 1.0 0.00 0.00 0.00 34 1003.5
20260504195515 71 267 0.0 1.0 0.00 0.00 0.00 32 1003.5
20260504195014 71 0.0 6.0 0.00 0.00 0.00 32 1003.6
20260504194535 72 233 0.0 13.0 0.00 0.00 0.00 31 1003.7
20260504194035 72 236 2.0 13.0 0.00 0.00 0.00 31 1003.6
20260504193514 72 51 0.0 13.0 0.00 0.00 0.00 31 1003.6
20260504193017 73 196 1.0 13.0 0.00 0.00 0.00 31 1003.6
20260504192537 72 239 2.0 10.0 0.00 0.00 0.00 32 1003.6
20260504192016 72 316 0.0 19.0 0.00 0.00 0.00 31 1003.6
20260504191516 72 291 2.0 19.0 0.00 0.00 0.00 32 1003.7
20260504191017 72 190 0.0 3.0 0.00 0.00 0.00 31 1003.8
20260504190517 72 219 0.0 4.0 0.00 0.00 0.00 31 1003.8
20260504190016 72 218 0.0 16.0 0.00 0.00 0.00 31 1003.8
20260504185517 72 266 2.0 16.0 0.00 0.00 0.00 32 1003.9
20260504185016 72 207 0.0 4.0 0.00 0.00 0.00 32 1003.9
20260504184516 72 266 0.0 11.0 0.00 0.00 0.00 33 1004.0
20260504184016 71 231 3.0 11.0 0.00 0.00 0.00 32 1004.0
20260504183517 71 198 0.0 3.0 0.00 0.00 0.00 32 1004.1
20260504183016 71 0.0 0.0 0.00 0.00 0.00 32 1004.3
20260504182516 71 0.0 0.0 0.00 0.00 0.00 32 1004.1
20260504182017 71 0.0 1.0 0.00 0.00 0.00 31 1004.3
20260504181516 71 264 0.0 1.0 0.00 0.00 0.00 32 1004.3
20260504181016 71 0.0 0.0 0.00 0.00 0.00 31 1004.3
20260504180516 71 0.0 12.0 0.00 0.00 0.00 32 1004.3
20260504180016 70 275 2.0 12.0 0.00 0.00 0.00 34 1004.3
20260504175516 70 0.0 1.0 0.00 0.00 0.00 32 1004.2
20260504175016 70 169 0.0 1.0 0.00 0.00 0.00 32 1004.2
20260504174557 70 153 0.0 1.0 0.00 0.00 0.00 31 1004.4
20260504174016 70 277 0.0 1.0 0.00 0.00 0.00 32 1004.4
20260504173536 69 190 0.0 1.0 0.00 0.00 0.00 33 1004.5
20260504173016 69 345 0.0 7.0 0.00 0.00 0.00 32 1004.5
20260504172516 69 191 0.0 9.0 0.00 0.00 0.00 33 1004.5
20260504172016 69 204 0.0 9.0 0.00 0.00 0.00 33 1004.6
20260504171536 69 0.0 0.0 0.00 0.00 0.00 33 1004.5
20260504171016 69 0.0 1.0 0.00 0.00 0.00 33 1004.7
20260504170516 69 249 0.0 1.0 0.00 0.00 0.00 34 1004.8
20260504151016 65 213 0.0 10.0 0.00 0.00 0.00 39 1005.9
20260504150516 65 213 1.0 10.0 0.00 0.00 0.00 39 1005.9
20260504141016 62 0.0 2.0 0.00 0.00 0.00 43 1006.3
20260504140516 62 349 0.0 2.0 0.00 0.00 0.00 44 1006.4